STARLINK-1491 (45778 NORAD) Tracking and Keplerian Element Data

This shows tracking and keplerian element data for the satellite.

Feedback or suggestion? Click here.




ElementValue
Catalog45778
NameSTARLINK-1491
Epoch Orbit447
Epoch Day185.50001157
Epoch Year2020
RAAN197.6312
Inclination52.9983
Eccentricity0.0001253
Argument of Perigee101.0134
Mean Anonmoly236.4914
Mean Motion15.62909856
Decay Rate-0.00239049
L11 45778U 20038BA 20185.50001157 -.00239049 00000-0 -26658-2 0 9997
L22 45778 52.9983 197.6312 0001253 101.0134 236.4914 15.62909856 4474

Live tracking and technical data element details for STARLINK-1491 (NORAD 45778). STARLINK-1491 can be tracked NOW for your location showing map with azimuth and elevation plus other details from your city location.

Track the satellite on the map from your city or location and see movement details for azimuth, elevation, latitude, longitude, range, height, and movement on the map or in text.







IsCatalogInMostPopularTable: catalog: 45778, numindb: 4
Update: records affected: 1



GetName: 45778 STARLINK-1491

Hit Count: updated at: Sat, 04 Jul 2020 02:20:42 GMT